User: anonymous   Login
Location: Montr�al
(45.5000°N, 73.5830°W)
Time: 19:09:25
(UTC-04:00)
Language:

Cosmos 1151 Rocket - Orbit

View from above orbital plane
View from above orbital plane
View from above satellite
View from above satellite

Ground track
Ground track

The orbit data is extracted from the following two-line orbital elements,

1 11672U 80005B   16205.10923394  .00000110  00000-0  93498-5 0  9995
2 11672  82.5142  29.9594 0016047 334.5602  25.4823 14.87799408974461
Epoch (UTC): 23 July 2016 02:37:17
Eccentricity: 0.0016047
inclination: 82.5142°
perigee height: 593 km
apogee height: 616 km
right ascension of ascending node: 29.9594°
argument of perigee: 334.5602°
revolutions per day: 14.87799408
mean anomaly at epoch: 25.4823°
orbit number at epoch: 97446

The dashed part of the orbit path shows where the satellite is in the earth's shadow,  

DLR